EW3043 Weather Reports


Display with metric or nautical units.
time (UTC)temp
F
wind
direction
speed
MPH
gust
MPH
rain 1hr
in
rain 24hr
in
rain mn
in
humidity
%
barometer
mb
20260904160124 65 77 0.0 3.0 0.00 0.00 0.00 24 1020.1
20260904155624 65 197 0.0 3.0 0.00 0.00 0.00 24 1020.1
20260904155121 64 306 0.0 3.0 0.00 0.00 0.00 24 1020.2
20260904154619 64 89 0.0 2.0 0.00 0.00 0.00 25 1020.2
20260904154135 63 290 0.0 2.0 0.00 0.00 0.00 27 1020.1
20260904153633 62 241 0.0 2.0 0.00 0.00 0.00 29 1020.1
20260904153131 62 4 0.0 3.0 0.00 0.00 0.00 33 1020.1
20260904152629 61 27 1.0 3.0 0.00 0.00 0.00 34 1020.0
20260904152147 60 42 1.0 2.0 0.00 0.00 0.00 35 1020.0
20260904151641 59 30 1.0 1.0 0.00 0.00 0.00 37 1019.9
20260904151121 59 59 0.0 1.0 0.00 0.00 0.00 37 1019.9
20260904150639 58 59 0.0 1.0 0.00 0.00 0.00 38 1019.9
20260904150137 57 49 0.0 1.0 0.00 0.00 0.00 39 1019.9
20260904145655 56 353 0.0 1.0 0.00 0.00 0.00 39 1019.9
20260904145152 55 352 0.0 1.0 0.00 0.00 0.00 39 1019.9
20260904144629 55 352 0.0 1.0 0.00 0.00 0.00 40 1019.8
20260904144127 54 351 0.0 0.0 0.00 0.00 0.00 41 1019.8
20260904143625 54 351 0.0 1.0 0.00 0.00 0.00 43 1019.8
20260904143123 53 351 0.0 1.0 0.00 0.00 0.00 44 1019.7
20260904142621 52 347 0.0 0.0 0.00 0.00 0.00 46 1019.6
20260904142139 51 307 0.0 0.0 0.00 0.00 0.00 47 1019.5
20260904141657 50 308 0.0 0.0 0.00 0.00 0.00 48 1019.5
20260904141153 50 251 0.0 0.0 0.00 0.00 0.00 49 1019.5
20260904140630 50 251 0.0 0.0 0.00 0.00 0.00 49 1019.4
20260904140128 49 251 0.0 1.0 0.00 0.00 0.00 49 1019.4
20260904135626 49 251 0.0 1.0 0.00 0.00 0.00 49 1019.4
20260904135142 49 251 0.0 1.0 0.00 0.00 0.00 49 1019.3
20260904134639 49 251 0.0 1.0 0.00 0.00 0.00 49 1019.2
20260904134138 49 251 0.0 1.0 0.00 0.00 0.00 50 1019.2
20260904133635 49 251 0.0 1.0 0.00 0.00 0.00 50 1019.1
20260904133134 49 252 0.0 1.0 0.00 0.00 0.00 50 1019.1
20260904132637 49 252 0.0 1.0 0.00 0.00 0.00 50 1019.1
20260904132134 49 252 0.0 1.0 0.00 0.00 0.00 50 1019.1
20260904131632 49 251 0.0 1.0 0.00 0.00 0.00 50 1019.0
20260904131130 49 252 0.0 1.0 0.00 0.00 0.00 49 1019.1
20260904130628 49 255 0.0 1.0 0.00 0.00 0.00 49 1019.0
20260904130146 49 256 0.0 1.0 0.00 0.00 0.00 50 1018.9
20260904125625 48 252 0.0 1.0 0.00 0.00 0.00 51 1018.8
20260904125122 48 252 0.0 1.0 0.00 0.00 0.00 52 1018.9
20260904124641 48 251 0.0 1.0 0.00 0.00 0.00 53 1018.9
20260904124140 48 249 0.0 1.0 0.00 0.00 0.00 54 1018.9
20260904123637 47 253 0.0 1.0 0.00 0.00 0.00 55 1018.9
20260904123135 47 253 0.0 1.0 0.00 0.00 0.00 56 1019.0
20260904122633 46 253 0.0 1.0 0.00 0.00 0.00 57 1018.9
20260904122131 46 253 0.0 0.0 0.00 0.00 0.00 58 1018.8
20260904121628 46 253 0.0 0.0 0.00 0.00 0.00 57 1018.7
20260904121130 46 253 0.0 0.0 0.00 0.00 0.00 56 1018.7
20260904120627 47 253 0.0 0.0 0.00 0.00 0.00 56 1018.6
20260904120125 47 253 0.0 0.0 0.00 0.00 0.00 56 1018.6
20260904115625 48 253 0.0 0.0 0.00 0.00 0.00 55 1018.7
20260904115144 48 253 0.0 1.0 0.00 0.00 0.00 56 1018.8
20260904114641 48 253 0.0 1.0 0.00 0.00 0.00 56 1018.8
20260904114139 49 253 0.0 1.0 0.00 0.00 0.00 56 1018.9
20260904113637 49 257 0.0 1.0 0.00 0.00 0.00 56 1018.8
20260904113134 49 258 0.0 1.0 0.00 0.00 0.00 57 1018.8
20260904112632 49 258 0.0 1.0 0.00 0.00 0.00 58 1018.8
20260904112130 49 252 0.0 2.0 0.00 0.00 0.00 60 1018.8
20260904111647 49 249 0.0 2.0 0.00 0.00 0.00 60 1018.8
20260904111144 49 252 0.0 2.0 0.00 0.00 0.00 60 1018.8
20260904110621 49 254 0.0 2.0 0.00 0.00 0.00 60 1018.8
20260904110139 49 255 0.0 2.0 0.00 0.00 0.00 59 1018.8
20260904105639 49 249 0.0 1.0 0.00 0.00 0.00 60 1018.8
20260904105136 49 254 0.0 1.0 0.00 0.00 0.00 60 1018.8
20260904104634 49 250 0.0 1.0 0.00 0.00 0.00 58 1018.8
20260904104151 49 249 0.0 1.0 0.00 0.00 0.00 59 1018.8
20260904103648 49 255 0.0 1.0 0.00 0.00 0.00 58 1018.7
20260904103128 49 255 0.0 1.0 0.00 0.00 0.00 57 1018.8
20260904102626 49 256 0.0 1.0 0.00 0.00 0.00 56 1018.7
20260904102124 49 256 0.0 1.0 0.00 0.00 0.00 56 1018.7
20260904101622 49 256 0.0 1.0 0.00 0.00 0.00 56 1018.7
20260904101140 49 256 0.0 1.0 0.00 0.00 0.00 56 1018.7
20260904100638 49 248 0.0 1.0 0.00 0.00 0.00 55 1018.7
20260904100136 50 247 0.0 1.0 0.00 0.00 0.00 54 1018.7
20260904095635 50 254 0.0 1.0 0.00 0.00 0.00 54 1018.7
20260904095132 50 254 0.0 1.0 0.00 0.00 0.00 55 1018.7
20260904094631 50 255 0.0 1.0 0.00 0.00 0.00 55 1018.7
20260904094128 50 233 0.0 1.0 0.00 0.00 0.00 55 1018.8
20260904093627 50 233 0.0 1.0 0.00 0.00 0.00 55 1018.7
20260904093125 50 165 0.0 1.0 0.00 0.00 0.00 53 1018.7
20260904092623 51 259 0.0 1.0 0.00 0.00 0.00 50 1018.6
20260904092125 51 252 0.0 1.0 0.00 0.00 0.00 49 1018.6
20260904091623 51 245 0.0 1.0 0.00 0.00 0.00 49 1018.6
20260904091141 51 245 0.0 1.0 0.00 0.00 0.00 49 1018.6
20260904090639 51 244 0.0 1.0 0.00 0.00 0.00 49 1018.6
20260904090138 50 147 0.0 1.0 0.00 0.00 0.00 48 1018.7
20260904085637 50 226 0.0 0.0 0.00 0.00 0.00 47 1018.7
20260904085133 50 226 0.0 0.0 0.00 0.00 0.00 47 1018.8
20260904084650 50 226 0.0 0.0 0.00 0.00 0.00 48 1018.9
20260904084148 50 227 0.0 0.0 0.00 0.00 0.00 49 1018.9
20260904083625 50 226 0.0 0.0 0.00 0.00 0.00 49 1018.9
20260904083203 49 227 0.0 0.0 0.00 0.00 0.00 49 1019.0
20260904082640 50 227 0.0 0.0 0.00 0.00 0.00 48 1019.1
20260904082158 50 226 0.0 0.0 0.00 0.00 0.00 47 1019.1
20260904081655 50 226 0.0 0.0 0.00 0.00 0.00 46 1019.1
20260904081131 50 227 0.0 0.0 0.00 0.00 0.00 45 1019.1
20260904080628 50 227 0.0 0.0 0.00 0.00 0.00 45 1019.0
20260904080146 50 227 0.0 1.0 0.00 0.00 0.00 46 1019.1
20260904075625 50 227 0.0 1.0 0.00 0.00 0.00 46 1019.1
20260904075124 50 227 0.0 0.0 0.00 0.00 0.00 46 1019.2
20260904074642 51 227 0.0 1.0 0.00 0.00 0.00 46 1019.1
20260904074201 51 227 0.0 1.0 0.00 0.00 0.00 46 1019.1
20260904073658 51 238 0.0 0.0 0.00 0.00 0.00 46 1019.1
20260904073155 51 238 0.0 0.0 0.00 0.00 0.00 46 1019.2
20260904072631 51 238 0.0 0.0 0.00 0.00 0.00 46 1019.2
20260904072130 51 238 0.0 0.0 0.00 0.00 0.00 45 1019.2
20260904071632 51 144 0.0 1.0 0.00 0.00 0.00 44 1019.2
20260904071150 52 215 0.0 1.0 0.00 0.00 0.00 43 1019.1
20260904070627 52 239 0.0 1.0 0.00 0.00 0.00 42 1019.1
20260904070125 51 347 0.0 1.0 0.00 0.00 0.00 42 1019.0
20260904065646 52 347 0.0 0.0 0.00 0.00 0.00 40 1019.0
20260904065201 52 38 0.0 1.0 0.00 0.00 0.00 40 1019.0
20260904064638 52 38 0.0 1.0 0.00 0.00 0.00 39 1019.0
20260904064135 53 38 0.0 1.0 0.00 0.00 0.00 39 1019.1
20260904063653 53 65 0.0 1.0 0.00 0.00 0.00 39 1019.1
20260904063130 53 65 0.0 1.0 0.00 0.00 0.00 39 1019.2
20260904062628 52 11 0.0 1.0 0.00 0.00 0.00 39 1019.2
20260904062126 52 248 0.0 0.0 0.00 0.00 0.00 38 1019.2
20260904061704 52 247 0.0 1.0 0.00 0.00 0.00 38 1019.2
20260904061141 52 247 0.0 1.0 0.00 0.00 0.00 38 1019.3
20260904060638 52 247 0.0 0.0 0.00 0.00 0.00 38 1019.2
20260904060136 52 248 0.0 0.0 0.00 0.00 0.00 38 1019.3
20260904055655 52 248 0.0 0.0 0.00 0.00 0.00 38 1019.2
20260904055152 52 247 0.0 0.0 0.00 0.00 0.00 38 1019.2
20260904054629 52 247 0.0 0.0 0.00 0.00 0.00 38 1019.2
20260904054127 52 248 0.0 0.0 0.00 0.00 0.00 38 1019.2
20260904053624 52 248 0.0 0.0 0.00 0.00 0.00 38 1019.2
20260904053126 52 247 0.0 0.0 0.00 0.00 0.00 39 1019.3
20260904052643 52 247 0.0 0.0 0.00 0.00 0.00 39 1019.4
20260904052141 52 247 0.0 0.0 0.00 0.00 0.00 40 1019.5
20260904051639 52 247 0.0 0.0 0.00 0.00 0.00 40 1019.6
20260904051136 52 248 0.0 1.0 0.00 0.00 0.00 41 1019.6
20260904050635 52 247 0.0 1.0 0.00 0.00 0.00 43 1019.6
20260904050132 52 248 0.0 1.0 0.00 0.00 0.00 44 1019.6
20260904045630 53 247 0.0 0.0 0.00 0.00 0.00 44 1019.6
20260904045128 53 247 0.0 0.0 0.00 0.00 0.00 44 1019.6
20260904044626 52 247 0.0 1.0 0.00 0.00 0.00 46 1019.7
20260904044144 52 247 0.0 1.0 0.00 0.00 0.00 46 1019.6
20260904043641 53 255 0.0 0.0 0.00 0.00 0.00 46 1019.6
20260904043139 53 255 0.0 0.0 0.00 0.00 0.00 46 1019.6
20260904042657 54 255 0.0 0.0 0.00 0.00 0.00 45 1019.5
20260904042134 54 255 0.0 0.0 0.00 0.00 0.00 46 1019.5
20260904041631 55 255 0.0 0.0 0.00 0.00 0.00 44 1019.5
20260904041132 55 255 0.0 0.0 0.00 0.00 0.00 42 1019.5
20260904040630 56 255 0.0 0.0 0.00 0.00 0.00 42 1019.4
20260904040128 56 255 0.0 0.0 0.00 0.00 0.00 40 1019.4
20260904035627 57 255 0.0 1.0 0.00 0.00 0.00 34 1019.5
20260904035125 57 255 0.0 1.0 0.00 0.00 0.00 31 1019.4
20260904034643 56 219 0.0 1.0 0.00 0.00 0.00 32 1019.4
20260904034141 56 217 0.0 1.0 0.00 0.00 0.00 33 1019.3
20260904033639 55 243 0.0 1.0 0.00 0.00 0.00 36 1019.4
20260904033157 54 242 0.0 0.0 0.00 0.00 0.00 39 1019.3
20260904032633 54 242 0.0 0.0 0.00 0.00 0.00 42 1019.3
20260904032131 54 242 0.0 0.0 0.00 0.00 0.00 48 1019.3
20260904031649 55 242 0.0 0.0 0.00 0.00 0.00 52 1019.3
20260904031126 55 242 0.0 1.0 0.00 0.00 0.00 51 1019.3
20260904030643 56 242 0.0 1.0 0.00 0.00 0.00 50 1019.3
20260904030201 56 242 0.0 1.0 0.00 0.00 0.00 43 1019.3
20260904025639 57 242 0.0 1.0 0.00 0.00 0.00 41 1019.2
20260904025158 56 242 0.0 1.0 0.00 0.00 0.00 43 1019.1
20260904024634 56 245 0.0 1.0 0.00 0.00 0.00 45 1019.1
20260904024153 56 243 0.0 1.0 0.00 0.00 0.00 47 1019.2
20260904023630 56 243 0.0 1.0 0.00 0.00 0.00 47 1019.1
20260904023148 56 243 0.0 0.0 0.00 0.00 0.00 47 1019.2
20260904022705 57 243 0.0 0.0 0.00 0.00 0.00 46 1019.2
20260904022126 57 243 0.0 0.0 0.00 0.00 0.00 45 1019.2
20260904021644 57 243 0.0 0.0 0.00 0.00 0.00 45 1019.2
20260904021136 58 243 0.0 0.0 0.00 0.00 0.00 44 1019.2
20260904020636 59 243 0.0 1.0 0.00 0.00 0.00 44 1019.2
20260904020154 59 243 0.0 1.0 0.00 0.00 0.00 43 1019.3
20260904015632 59 243 0.0 1.0 0.00 0.00 0.00 41 1019.3
20260904015130 60 168 0.0 2.0 0.00 0.00 0.00 41 1019.3
20260904014627 60 167 0.0 2.0 0.00 0.00 0.00 40 1019.3
20260904014126 61 193 0.0 1.0 0.00 0.00 0.00 40 1019.3
20260904013643 61 279 0.0 1.0 0.00 0.00 0.00 39 1019.3
20260904013141 61 247 0.0 1.0 0.00 0.00 0.00 39 1019.3
20260904012638 62 296 0.0 1.0 0.00 0.00 0.00 38 1019.3
20260904012156 62 250 0.0 2.0 0.00 0.00 0.00 37 1019.3
20260904011635 62 289 0.0 1.0 0.00 0.00 0.00 34 1019.3
20260904011133 62 148 0.0 2.0 0.00 0.00 0.00 35 1019.4
20260904010630 63 259 0.0 3.0 0.00 0.00 0.00 36 1019.4
20260904010128 63 198 0.0 3.0 0.00 0.00 0.00 35 1019.5
20260904005631 64 214 0.0 2.0 0.00 0.00 0.00 35 1019.4
20260904005129 64 224 0.0 4.0 0.00 0.00 0.00 34 1019.5
20260904004628 64 210 1.0 4.0 0.00 0.00 0.00 33 1019.5
20260904004126 65 258 0.0 3.0 0.00 0.00 0.00 33 1019.5
20260904003644 65 266 1.0 3.0 0.00 0.00 0.00 32 1019.6
20260904003141 65 210 1.0 3.0 0.00 0.00 0.00 31 1019.6
20260904002639 66 251 0.0 1.0 0.00 0.00 0.00 31 1019.7
20260904002137 66 256 0.0 2.0 0.00 0.00 0.00 30 1019.7
20260904001655 66 284 0.0 2.0 0.00 0.00 0.00 29 1019.7
20260904001153 66 310 1.0 2.0 0.00 0.00 0.00 29 1019.8
20260904000650 67 270 0.0 3.0 0.00 0.00 0.00 27 1019.8
20260904000126 67 214 1.0 3.0 0.00 0.00 0.00 27 1019.8
20260903235646 67 258 0.0 2.0 0.00 0.00 0.00 26 1019.9
20260903235204 68 229 1.0 5.0 0.00 0.00 0.00 27 1019.9
20260903234640 67 275 0.0 5.0 0.00 0.00 0.00 27 1019.9
20260903234139 68 128 1.0 4.0 0.00 0.00 0.00 26 1020.0
20260903233656 68 294 1.0 4.0 0.00 0.00 0.00 26 1019.9
20260903233133 68 254 0.0 3.0 0.00 0.00 0.00 25 1020.0
20260903232631 68 252 1.0 5.0 0.00 0.00 0.00 27 1020.1
20260903232129 68 259 1.0 6.0 0.00 0.00 0.00 27 1020.1
20260903231631 68 250 1.0 6.0 0.00 0.00 0.00 26 1020.1
20260903231129 69 278 1.0 5.0 0.00 0.00 0.00 25 1020.2
20260903230628 69 293 0.0 2.0 0.00 0.00 0.00 27 1020.1
20260903230202 69 44 0.0 6.0 0.00 0.00 0.00 26 1020.2
20260903225638 70 267 1.0 6.0 0.00 0.00 0.00 26 1020.3
20260903225136 70 295 0.0 6.0 0.00 0.00 0.00 25 1020.3
20260903224634 71 250 0.0 5.0 0.00 0.00 0.00 25 1020.3
20260903224132 71 108 1.0 4.0 0.00 0.00 0.00 24 1020.3
20260903223630 71 148 1.0 4.0 0.00 0.00 0.00 24 1020.3
20260903223144 71 235 1.0 4.0 0.00 0.00 0.00 24 1020.4
20260903222641 71 257 0.0 4.0 0.00 0.00 0.00 23 1020.4
20260903222139 71 266 1.0 3.0 0.00 0.00 0.00 22 1020.4
20260903221636 71 290 1.0 4.0 0.00 0.00 0.00 21 1020.4
20260903221155 71 259 1.0 4.0 0.00 0.00 0.00 22 1020.4
20260903220629 72 65 1.0 4.0 0.00 0.00 0.00 21 1020.6
20260903220127 72 333 0.0 3.0 0.00 0.00 0.00 21 1020.6
20260903215706 72 65 1.0 4.0 0.00 0.00 0.00 21 1020.6
20260903215141 72 295 1.0 4.0 0.00 0.00 0.00 20 1020.7
20260903214659 72 271 0.0 4.0 0.00 0.00 0.00 21 1020.7
20260903214135 73 224 1.0 4.0 0.00 0.00 0.00 20 1020.7
20260903213638 73 39 0.0 5.0 0.00 0.00 0.00 21 1020.8
20260903213134 73 168 1.0 5.0 0.00 0.00 0.00 21 1020.8
20260903212650 72 179 1.0 6.0 0.00 0.00 0.00 21 1020.7
20260903211646 73 247 2.0 4.0 0.00 0.00 0.00 22 1020.8
20260903211143 74 30 1.0 5.0 0.00 0.00 0.00 21 1020.8
20260903210640 74 247 1.0 5.0 0.00 0.00 0.00 20 1020.8
20260903210138 74 243 1.0 3.0 0.00 0.00 0.00 21 1020.8
20260903205638 74 283 1.0 7.0 0.00 0.00 0.00 20 1020.8
20260903205137 74 205 1.0 7.0 0.00 0.00 0.00 21 1020.8
20260903204635 74 244 1.0 6.0 0.00 0.00 0.00 21 1020.8
20260903204132 73 136 2.0 6.0 0.00 0.00 0.00 22 1020.8
20260903203630 73 285 1.0 5.0 0.00 0.00 0.00 20 1020.8
20260903203208 73 243 1.0 7.0 0.00 0.00 0.00 21 1020.7
20260903202705 73 253 1.0 7.0 0.00 0.00 0.00 21 1020.7
20260903202203 73 283 1.0 3.0 0.00 0.00 0.00 22 1020.8
20260903201640 73 238 0.0 4.0 0.00 0.00 0.00 23 1020.8
20260903201138 73 283 1.0 4.0 0.00 0.00 0.00 21 1020.8
20260903200635 73 193 1.0 4.0 0.00 0.00 0.00 22 1020.9
20260903200137 72 266 1.0 5.0 0.00 0.00 0.00 23 1020.9
20260903195636 72 283 1.0 5.0 0.00 0.00 0.00 24 1020.9
20260903195134 73 263 1.0 3.0 0.00 0.00 0.00 22 1021.0
20260903194633 73 252 1.0 3.0 0.00 0.00 0.00 22 1021.0
20260903194152 73 171 1.0 4.0 0.00 0.00 0.00 22 1021.0
20260903193629 72 259 1.0 6.0 0.00 0.00 0.00 23 1021.0
20260903193147 72 214 2.0 6.0 0.00 0.00 0.00 22 1021.0
20260903192645 72 302 2.0 4.0 0.00 0.00 0.00 22 1021.1
20260903192143 72 240 1.0 5.0 0.00 0.00 0.00 22 1021.2
20260903191641 71 245 1.0 5.0 0.00 0.00 0.00 22 1021.2
20260903191140 72 296 1.0 4.0 0.00 0.00 0.00 21 1021.2
20260903190658 72 94 1.0 5.0 0.00 0.00 0.00 21 1021.4
20260903190134 72 234 1.0 5.0 0.00 0.00 0.00 21 1021.4
20260903185633 72 296 1.0 2.0 0.00 0.00 0.00 21 1021.4
20260903185131 73 326 1.0 3.0 0.00 0.00 0.00 21 1021.5
20260903184628 72 174 1.0 3.0 0.00 0.00 0.00 21 1021.5
20260903184131 72 265 1.0 3.0 0.00 0.00 0.00 21 1021.5
20260903183646 72 271 1.0 4.0 0.00 0.00 0.00 20 1021.5
20260903183144 72 200 1.0 4.0 0.00 0.00 0.00 21 1021.6
20260903182641 72 262 1.0 3.0 0.00 0.00 0.00 20 1021.6
20260903182159 72 228 1.0 3.0 0.00 0.00 0.00 20 1021.6
20260903181636 73 183 1.0 3.0 0.00 0.00 0.00 20 1021.6
20260903181134 73 63 1.0 2.0 0.00 0.00 0.00 21 1021.6
20260903180632 73 267 0.0 2.0 0.00 0.00 0.00 21 1021.6
20260903180130 72 307 1.0 4.0 0.00 0.00 0.00 21 1021.5
20260903175628 72 74 1.0 4.0 0.00 0.00 0.00 22 1021.6
20260903175146 71 288 1.0 4.0 0.00 0.00 0.00 22 1021.6
20260903174644 71 254 1.0 4.0 0.00 0.00 0.00 21 1021.4
20260903174204 71 29 1.0 4.0 0.00 0.00 0.00 21 1021.4
20260903173640 71 20 0.0 4.0 0.00 0.00 0.00 22 1021.5
20260903173138 70 131 1.0 4.0 0.00 0.00 0.00 22 1021.5
20260903172636 70 288 1.0 3.0 0.00 0.00 0.00 22 1021.4
20260903172134 70 255 1.0 3.0 0.00 0.00 0.00 22 1021.4
20260903171636 70 303 1.0 3.0 0.00 0.00 0.00 21 1021.3
20260903171133 70 176 1.0 9.0 0.00 0.00 0.00 23 1021.3
20260903170631 70 236 1.0 9.0 0.00 0.00 0.00 22 1021.2
20260903170210 69 233 0.0 6.0 0.00 0.00 0.00 22 1021.2
20260903165708 69 247 1.0 6.0 0.00 0.00 0.00 23 1021.2
20260903165205 68 278 1.0 3.0 0.00 0.00 0.00 24 1021.1
20260903164640 68 217 0.0 4.0 0.00 0.00 0.00 23 1021.1
20260903164155 68 274 1.0 4.0 0.00 0.00 0.00 23 1021.0
20260903163632 68 299 1.0 3.0 0.00 0.00 0.00 23 1021.1
20260903163130 67 219 1.0 4.0 0.00 0.00 0.00 24 1021.1
20260903162708 67 269 1.0 4.0 0.00 0.00 0.00 23 1021.0
20260903162144 67 259 1.0 3.0 0.00 0.00 0.00 23 1021.2
20260903161642 67 153 1.0 3.0 0.00 0.00 0.00 23 1021.1
20260903161139 66 241 0.0 3.0 0.00 0.00 0.00 24 1021.1
20260903160657 66 229 0.0 2.0 0.00 0.00 0.00 23 1021.1